| time (UTC) | temp F | wind direction | speed knots | gust knots | rain 1hr in | rain 24hr in | rain mn in | humidity % | barometer mb |
| 20260506150006 | 62 | 105 | 1.7 | 5.2 | 0.00 | 0.24 | 0.01 | 53 | 1010.8 |
| 20260506144506 | 64 | 84 | 1.7 | 6.1 | 0.00 | 0.37 | 0.01 | 50 | 1010.7 |
| 20260506143006 | 64 | 84 | 1.7 | 5.2 | 0.00 | 0.38 | 0.01 | 50 | 1010.9 |
| 20260506141506 | 64 | 79 | 1.7 | 5.2 | 0.00 | 0.38 | 0.01 | 50 | 1011.1 |
| 20260506124505 | 62 | 70 | 1.7 | 8.7 | 0.00 | 0.39 | 0.01 | 61 | 1011.7 |
| 20260506121506 | 62 | 68 | 1.7 | 7.0 | 0.00 | 0.39 | 0.01 | 60 | 1011.9 |
| 20260506113009 | 58 | 75 | 0.9 | 3.5 | 0.00 | 0.39 | 0.01 | 78 | 1012.1 |
| 20260506111506 | 54 | 76 | 1.7 | 4.3 | 0.00 | 0.39 | 0.01 | 89 | 1012.1 |
| 20260506104505 | 55 | 74 | 1.7 | 5.2 | 0.00 | 0.39 | 0.01 | 89 | 1012.1 |
| 20260506103006 | 55 | 72 | 0.9 | 4.3 | 0.00 | 0.39 | 0.01 | 88 | 1012.3 |
| 20260506093006 | 51 | 80 | 0.9 | 3.5 | 0.00 | 0.39 | 0.01 | 87 | 1012.3 |
| 20260506091506 | 50 | 74 | 0.9 | 4.3 | 0.00 | 0.39 | 0.01 | 87 | 1012.3 |
| 20260506090006 | 50 | 56 | 0.0 | 2.6 | 0.00 | 0.39 | 0.01 | 87 | 1012.4 |
| 20260506084506 | 49 | 89 | 0.0 | 5.2 | 0.00 | 0.39 | 0.01 | 88 | 1012.2 |
| 20260506083006 | 48 | 0 | 0.0 | 0.0 | 0.00 | 0.39 | 0.01 | 88 | 1012.2 |
| 20260506081506 | 47 | 0 | 0.0 | 0.0 | 0.00 | 0.39 | 0.01 | 88 | 1012.1 |
| 20260506073005 | 46 | 66 | 0.0 | 2.6 | 0.00 | 0.39 | 0.01 | 89 | 1011.8 |
| 20260506071505 | 45 | 65 | 0.0 | 3.5 | 0.00 | 0.39 | 0.01 | 89 | 1011.9 |
| 20260506044505 | 43 | 0 | 0.0 | 0.0 | 0.00 | 0.39 | 0.01 | 89 | 1010.9 |
| 20260506043006 | 43 | 0 | 0.0 | 0.0 | 0.00 | 0.39 | 0.01 | 89 | 1010.9 |
| 20260506041506 | 43 | 55 | 0.0 | 3.5 | 0.00 | 0.39 | 0.01 | 89 | 1010.7 |
| 20260506034505 | 42 | 0 | 0.0 | 0.0 | 0.00 | 0.39 | 0.01 | 89 | 1010.7 |
| 20260506024505 | 43 | 0 | 0.0 | 0.0 | 0.00 | 0.39 | 0.01 | 89 | 1010.8 |
| 20260506021505 | 44 | 0 | 0.0 | 0.0 | 0.01 | 0.39 | 0.01 | 89 | 1010.8 |
| 20260506011505 | 45 | 0 | 0.0 | 0.0 | 0.00 | 0.39 | 0.00 | 89 | 1010.7 |
| 20260506010006 | 45 | 0 | 0.0 | 0.0 | 0.00 | 0.39 | 0.00 | 89 | 1010.9 |
| 20260506004505 | 45 | 0 | 0.0 | 0.0 | 0.00 | 0.39 | 0.00 | 89 | 1011.0 |
| 20260506003005 | 45 | 0 | 0.0 | 0.0 | 0.00 | 0.39 | 0.00 | 89 | 1010.9 |
| 20260506001505 | 45 | 0 | 0.0 | 0.0 | 0.00 | 0.39 | 0.00 | 89 | 1011.0 |
| 20260506000005 | 45 | 0 | 0.0 | 0.0 | 0.00 | 0.39 | 0.00 | 88 | 1011.1 |
| 20260505233005 | 44 | 0 | 0.0 | 0.0 | 0.00 | 0.39 | 0.00 | 88 | 1011.1 |
| 20260505231505 | 45 | 0 | 0.0 | 0.0 | 0.00 | 0.39 | 0.00 | 88 | 1011.1 |
| 20260505214505 | 45 | 0 | 0.0 | 0.0 | 0.10 | 0.38 | 0.38 | 88 | 1011.7 |
| 20260505213005 | 45 | 130 | 0.0 | 0.9 | 0.09 | 0.37 | 0.37 | 88 | 1011.7 |
| 20260505204505 | 46 | 0 | 0.0 | 0.0 | 0.00 | 0.28 | 0.28 | 88 | 1011.3 |
| 20260505193005 | 48 | 266 | 0.0 | 0.9 | 0.03 | 0.51 | 0.28 | 88 | 1010.3 |
| 20260505190005 | 48 | 259 | 0.0 | 2.6 | 0.06 | 0.51 | 0.28 | 88 | 1010.6 |
| 20260505174505 | 49 | 243 | 0.0 | 0.9 | 0.02 | 0.45 | 0.21 | 88 | 1010.5 |
| 20260505171505 | 50 | 261 | 1.7 | 4.3 | 0.02 | 0.45 | 0.21 | 88 | 1010.6 |
| 20260505170005 | 50 | 255 | 0.9 | 3.5 | 0.01 | 0.43 | 0.20 | 88 | 1010.7 |